CW0958 Weather Reports


Display with metric or nautical units.
time (UTC)temp
F
wind
direction
speed
MPH
gust
MPH
rain 1hr
in
rain 24hr
in
rain mn
in
humidity
%
barometer
mb
20260507141600 69 178 1.0 5.0 0.00 0.00 0.00 33 1013.8
20260507141033 69 30 2.0 5.0 0.00 0.00 0.00 34 1013.8
20260507140535 68 49 2.0 4.0 0.00 0.00 0.00 34 1013.8
20260507140104 68 34 1.0 3.0 0.00 0.00 0.00 35 1013.7
20260507135534 67 56 2.0 4.0 0.00 0.00 0.00 35 1013.6
20260507135033 67 83 1.0 4.0 0.00 0.00 0.00 34 1013.6
20260507134550 66 38 1.0 4.0 0.00 0.00 0.00 35 1013.5
20260507134034 66 58 2.0 4.0 0.00 0.00 0.00 34 1013.5
20260507133537 65 32 1.0 3.0 0.00 0.00 0.00 34 1013.4
20260507133048 65 0 0.0 2.0 0.00 0.00 0.00 34 1013.4
20260507132535 65 0 0.0 2.0 0.00 0.00 0.00 34 1013.4
20260507132040 65 67 0.0 2.0 0.00 0.00 0.00 34 1013.4
20260507131603 65 178 0.0 2.0 0.00 0.00 0.00 34 1013.3
20260507131037 65 161 0.0 1.0 0.00 0.00 0.00 34 1013.2
20260507130534 65 58 0.0 1.0 0.00 0.00 0.00 37 1013.2
20260507130051 66 51 0.0 2.0 0.00 0.00 0.00 36 1013.3
20260507125535 66 0 0.0 2.0 0.00 0.00 0.00 32 1013.2
20260507125034 66 0 0.0 2.0 0.00 0.00 0.00 36 1013.2
20260507124607 66 0 0.0 4.0 0.00 0.00 0.00 32 1013.1
20260507124032 66 111 0.0 7.0 0.00 0.00 0.00 31 1013.1
20260507123535 66 9 3.0 7.0 0.00 0.00 0.00 31 1013.0
20260507123057 66 22 2.0 8.0 0.00 0.00 0.00 31 1013.0
20260507122533 66 9 3.0 8.0 0.00 0.00 0.00 31 1013.0
20260507122035 66 17 4.0 8.0 0.00 0.00 0.00 32 1013.0
20260507121546 65 41 3.0 8.0 0.00 0.00 0.00 33 1012.9
20260507121032 65 46 3.0 6.0 0.00 0.00 0.00 33 1012.9
20260507120534 65 33 2.0 4.0 0.00 0.00 0.00 33 1012.8
20260507120048 65 51 1.0 4.0 0.00 0.00 0.00 32 1012.9
20260507115538 65 55 1.0 5.0 0.00 0.00 0.00 32 1013.0
20260507115034 66 22 2.0 5.0 0.00 0.00 0.00 32 1013.0
20260507114547 66 341 2.0 5.0 0.00 0.00 0.00 32 1012.9
20260507114038 66 55 2.0 6.0 0.00 0.00 0.00 32 1013.1
20260507113534 66 9 3.0 6.0 0.00 0.00 0.00 32 1013.2
20260507113053 66 347 1.0 4.0 0.00 0.00 0.00 31 1013.1
20260507112535 66 0 1.0 4.0 0.00 0.00 0.00 31 1013.2
20260507112038 66 51 1.0 4.0 0.00 0.00 0.00 31 1013.2
20260507111643 66 247 1.0 4.0 0.00 0.00 0.00 31 1013.2
20260507111551 66 247 1.0 4.0 0.00 0.00 0.00 31 1013.2
20260507111032 66 325 2.0 4.0 0.00 0.00 0.00 31 1013.2
20260507110535 67 15 2.0 4.0 0.00 0.00 0.00 31 1013.2
20260507110043 67 26 0.0 3.0 0.00 0.00 0.00 31 1013.3
20260507105532 67 46 0.0 3.0 0.00 0.00 0.00 30 1013.3
20260507105034 67 0 1.0 3.0 0.00 0.00 0.00 30 1013.5
20260507104542 67 22 0.0 2.0 0.00 0.00 0.00 29 1013.4
20260507104036 67 0 0.0 2.0 0.00 0.00 0.00 29 1013.5
20260507103537 67 26 0.0 2.0 0.00 0.00 0.00 29 1013.5
20260507103046 68 338 0.0 2.0 0.00 0.00 0.00 29 1013.5
20260507102538 68 0 0.0 2.0 0.00 0.00 0.00 29 1013.5
20260507102036 68 0 0.0 2.0 0.00 0.00 0.00 29 1013.7
20260507101553 68 83 0.0 2.0 0.00 0.00 0.00 29 1013.6
20260507101036 68 61 1.0 3.0 0.00 0.00 0.00 29 1013.7
20260507100555 68 0 0.0 3.0 0.00 0.00 0.00 29 1013.7
20260507100051 68 83 0.0 3.0 0.00 0.00 0.00 29 1013.7
20260507095535 69 0 1.0 3.0 0.00 0.00 0.00 29 1013.6
20260507095035 69 92 1.0 3.0 0.00 0.00 0.00 29 1013.7
20260507094546 69 111 1.0 3.0 0.00 0.00 0.00 29 1013.7
20260507094032 69 0 1.0 3.0 0.00 0.00 0.00 28 1013.6
20260507093535 69 56 2.0 4.0 0.00 0.00 0.00 28 1013.6
20260507093042 69 67 2.0 4.0 0.00 0.00 0.00 28 1013.6
20260507092534 69 0 1.0 3.0 0.00 0.00 0.00 27 1013.6
20260507092034 70 0 1.0 3.0 0.00 0.00 0.00 27 1013.7
20260507091539 70 44 1.0 3.0 0.00 0.00 0.00 27 1013.6
20260507091032 70 338 1.0 3.0 0.00 0.00 0.00 27 1013.5
20260507090531 71 17 0.0 2.0 0.00 0.00 0.00 26 1013.6
20260507090046 71 334 0.0 4.0 0.00 0.00 0.00 26 1013.5
20260507085536 71 38 2.0 7.0 0.00 0.00 0.00 26 1013.6
20260507085036 71 24 3.0 7.0 0.00 0.00 0.00 25 1013.6
20260507084551 71 344 2.0 7.0 0.00 0.00 0.00 24 1013.6
20260507084036 72 30 2.0 7.0 0.00 0.00 0.00 24 1013.6
20260507083535 72 273 4.0 8.0 0.00 0.00 0.00 24 1013.5
20260507083049 71 265 4.0 8.0 0.00 0.00 0.00 24 1013.6
20260507082534 71 250 4.0 8.0 0.00 0.00 0.00 24 1013.7
20260507082039 71 252 4.0 8.0 0.00 0.00 0.00 25 1013.8
20260507081544 71 275 5.0 7.0 0.00 0.00 0.00 25 1013.9
20260507081036 72 262 4.0 7.0 0.00 0.00 0.00 25 1013.9
20260507080533 72 269 3.0 7.0 0.00 0.00 0.00 25 1013.9
20260507080053 72 286 3.0 6.0 0.00 0.00 0.00 25 1013.8
20260507075536 72 282 3.0 7.0 0.00 0.00 0.00 25 1013.8
20260507075036 72 288 3.0 8.0 0.00 0.00 0.00 25 1013.8
20260507074556 72 275 5.0 8.0 0.00 0.00 0.00 24 1013.9
20260507074036 72 282 3.0 8.0 0.00 0.00 0.00 25 1013.8
20260507073536 72 250 4.0 11.0 0.00 0.00 0.00 25 1013.8
20260507073058 72 280 5.0 11.0 0.00 0.00 0.00 25 1013.8
20260507072536 72 287 4.0 11.0 0.00 0.00 0.00 25 1013.7
20260507072037 72 252 6.0 11.0 0.00 0.00 0.00 25 1013.8
20260507071600 72 250 6.0 9.0 0.00 0.00 0.00 24 1013.8
20260507071038 72 275 6.0 9.0 0.00 0.00 0.00 25 1013.8
20260507070535 72 275 5.0 9.0 0.00 0.00 0.00 24 1013.8
20260507070048 72 277 5.0 8.0 0.00 0.00 0.00 25 1013.9
20260507065537 72 257 4.0 8.0 0.00 0.00 0.00 24 1013.9
20260507065034 73 269 4.0 8.0 0.00 0.00 0.00 24 1013.9
20260507064551 73 275 5.0 9.0 0.00 0.00 0.00 24 1013.8
20260507064036 73 291 5.0 9.0 0.00 0.00 0.00 24 1013.9
20260507063536 73 284 4.0 8.0 0.00 0.00 0.00 24 1013.9
20260507063055 73 280 5.0 8.0 0.00 0.00 0.00 24 1013.8
20260507062536 73 270 6.0 9.0 0.00 0.00 0.00 24 1013.8
20260507062036 73 265 6.0 9.0 0.00 0.00 0.00 23 1013.7
20260507061544 73 296 5.0 8.0 0.00 0.00 0.00 24 1013.8
20260507061036 73 306 3.0 6.0 0.00 0.00 0.00 24 1013.8
20260507060536 74 277 2.0 6.0 0.00 0.00 0.00 24 1013.8
20260507060043 74 254 3.0 6.0 0.00 0.00 0.00 24 1013.9
20260507055538 74 261 3.0 6.0 0.00 0.00 0.00 24 1013.8
20260507055037 74 291 3.0 7.0 0.00 0.00 0.00 24 1013.8
20260507054552 75 270 4.0 7.0 0.00 0.00 0.00 24 1013.9
20260507054036 75 272 4.0 8.0 0.00 0.00 0.00 24 1013.9
20260507053536 75 284 4.0 8.0 0.00 0.00 0.00 23 1013.9
20260507053049 75 288 3.0 8.0 0.00 0.00 0.00 23 1013.8
20260507052536 75 273 3.0 7.0 0.00 0.00 0.00 23 1013.7
20260507052036 75 286 4.0 7.0 0.00 0.00 0.00 23 1013.7
20260507051546 75 292 4.0 7.0 0.00 0.00 0.00 23 1013.6
20260507051035 75 296 3.0 7.0 0.00 0.00 0.00 23 1013.6
20260507050535 76 300 3.0 8.0 0.00 0.00 0.00 23 1013.6
20260507050044 76 252 3.0 8.0 0.00 0.00 0.00 22 1013.6
20260507045536 76 261 3.0 8.0 0.00 0.00 0.00 22 1013.6
20260507045036 76 279 4.0 9.0 0.00 0.00 0.00 22 1013.5
20260507044546 76 247 5.0 9.0 0.00 0.00 0.00 22 1013.5
20260507044038 76 246 4.0 8.0 0.00 0.00 0.00 22 1013.5
20260507043533 77 242 5.0 8.0 0.00 0.00 0.00 22 1013.5
20260507043047 77 265 4.0 8.0 0.00 0.00 0.00 22 1013.5
20260507042536 77 259 5.0 9.0 0.00 0.00 0.00 22 1013.4
20260507042035 77 250 5.0 9.0 0.00 0.00 0.00 22 1013.4
20260507041545 77 252 6.0 10.0 0.00 0.00 0.00 21 1013.3
20260507041036 77 250 5.0 10.0 0.00 0.00 0.00 21 1013.2
20260507040537 78 269 4.0 9.0 0.00 0.00 0.00 21 1013.1
20260507040057 78 242 6.0 9.0 0.00 0.00 0.00 21 1013.1
20260507035536 78 272 4.0 9.0 0.00 0.00 0.00 21 1013.0
20260507035036 78 273 4.0 9.0 0.00 0.00 0.00 21 1012.9
20260507034554 78 261 5.0 9.0 0.00 0.00 0.00 21 1012.8
20260507034035 78 236 3.0 8.0 0.00 0.00 0.00 21 1012.8
20260507033535 79 261 4.0 9.0 0.00 0.00 0.00 21 1012.7
20260507033047 79 291 4.0 9.0 0.00 0.00 0.00 21 1012.6
20260507032535 79 282 4.0 8.0 0.00 0.00 0.00 21 1012.4
20260507032032 79 286 4.0 9.0 0.00 0.00 0.00 21 1012.4
20260507031550 79 270 5.0 9.0 0.00 0.00 0.00 21 1012.3
20260507031035 79 286 6.0 9.0 0.00 0.00 0.00 20 1012.2
20260507030537 80 287 5.0 9.0 0.00 0.00 0.00 20 1012.2
20260507030048 80 269 6.0 9.0 0.00 0.00 0.00 20 1012.2
20260507025537 80 268 4.0 7.0 0.00 0.00 0.00 20 1012.1
20260507025036 80 269 5.0 8.0 0.00 0.00 0.00 20 1012.1
20260507024544 81 270 5.0 8.0 0.00 0.00 0.00 19 1012.0
20260507024037 81 281 4.0 9.0 0.00 0.00 0.00 19 1011.9
20260507023535 81 272 6.0 10.0 0.00 0.00 0.00 19 1011.9
20260507023044 81 257 7.0 10.0 0.00 0.00 0.00 19 1011.9
20260507022535 81 250 6.0 10.0 0.00 0.00 0.00 19 1011.9
20260507022033 81 255 7.0 10.0 0.00 0.00 0.00 19 1011.8
20260507021546 81 254 5.0 10.0 0.00 0.00 0.00 19 1011.9
20260507021037 81 273 6.0 10.0 0.00 0.00 0.00 19 1011.8
20260507020532 82 277 7.0 10.0 0.00 0.00 0.00 18 1011.9
20260507020100 82 240 6.0 10.0 0.00 0.00 0.00 18 1011.9
20260507015536 82 247 6.0 11.0 0.00 0.00 0.00 18 1011.9
20260507015036 82 267 6.0 11.0 0.00 0.00 0.00 18 1011.8
20260507014559 82 236 8.0 12.0 0.00 0.00 0.00 18 1011.8
20260507014036 82 241 7.0 12.0 0.00 0.00 0.00 18 1011.8
20260507013538 82 238 7.0 14.0 0.00 0.00 0.00 18 1011.9
20260507013044 83 257 8.0 14.0 0.00 0.00 0.00 18 1011.9
20260507012535 83 271 9.0 12.0 0.00 0.00 0.00 18 1011.8
20260507012035 83 275 7.0 12.0 0.00 0.00 0.00 18 1011.8
20260507011601 83 243 8.0 14.0 0.00 0.00 0.00 18 1011.7
20260507011032 83 252 8.0 14.0 0.00 0.00 0.00 18 1011.8
20260507010536 83 240 8.0 12.0 0.00 0.00 0.00 18 1011.8
20260507010043 83 261 6.0 14.0 0.00 0.00 0.00 18 1011.8
20260507005533 83 273 8.0 14.0 0.00 0.00 0.00 18 1011.8
20260507005032 83 234 8.0 12.0 0.00 0.00 0.00 18 1011.8
20260507004542 83 255 5.0 13.0 0.00 0.00 0.00 18 1011.8
20260507004032 83 289 9.0 13.0 0.00 0.00 0.00 18 1011.8
20260507003535 83 225 7.0 13.0 0.00 0.00 0.00 18 1011.8
20260507003047 84 254 7.0 13.0 0.00 0.00 0.00 18 1011.8
20260507002535 84 273 8.0 14.0 0.00 0.00 0.00 18 1011.8
20260507002035 84 249 7.0 14.0 0.00 0.00 0.00 18 1011.9
20260507001617 84 259 7.0 13.0 0.00 0.00 0.00 18 1011.8
20260507001038 84 288 4.0 13.0 0.00 0.00 0.00 18 1011.9
20260507000539 84 265 6.0 13.0 0.00 0.00 0.00 18 1011.8
20260507000100 84 336 5.0 14.0 0.00 0.00 0.00 18 1011.9
20260506235536 84 262 10.0 18.0 0.00 0.00 0.00 18 1011.9
20260506235036 84 297 7.0 18.0 0.00 0.00 0.00 18 1011.9
20260506234558 84 214 2.0 16.0 0.00 0.00 0.00 18 1012.0
20260506234036 84 279 9.0 16.0 0.00 0.00 0.00 18 1012.0
20260506233537 84 271 5.0 13.0 0.00 0.00 0.00 18 1011.9
20260506233043 84 272 4.0 13.0 0.00 0.00 0.00 19 1012.0
20260506232536 84 290 7.0 14.0 0.00 0.00 0.00 18 1012.1
20260506232035 84 257 8.0 14.0 0.00 0.00 0.00 18 1012.2
20260506231542 84 270 6.0 14.0 0.00 0.00 0.00 19 1012.2
20260506231036 84 275 7.0 16.0 0.00 0.00 0.00 19 1012.2
20260506230539 84 277 7.0 16.0 0.00 0.00 0.00 19 1012.3
20260506230052 84 269 7.0 14.0 0.00 0.00 0.00 19 1012.3
20260506225535 84 223 9.0 16.0 0.00 0.00 0.00 19 1012.4
20260506225036 84 272 10.0 17.0 0.00 0.00 0.00 19 1012.4
20260506224546 84 255 10.0 18.0 0.00 0.00 0.00 19 1012.5
20260506224035 84 262 13.0 18.0 0.00 0.00 0.00 18 1012.6
20260506223535 85 259 5.0 14.0 0.00 0.00 0.00 18 1012.5
20260506223053 85 259 8.0 14.0 0.00 0.00 0.00 18 1012.7
20260506222536 85 293 2.0 8.0 0.00 0.00 0.00 20 1012.7
20260506222036 85 219 2.0 8.0 0.00 0.00 0.00 18 1012.7
20260506221544 85 58 3.0 11.0 0.00 0.00 0.00 19 1012.9
20260506221035 84 341 4.0 12.0 0.00 0.00 0.00 19 1012.8
20260506220536 83 231 7.0 16.0 0.00 0.00 0.00 18 1012.9
20260506220057 83 311 10.0 16.0 0.00 0.00 0.00 19 1013.0
20260506215537 84 304 9.0 18.0 0.00 0.00 0.00 18 1013.1
20260506215037 84 277 11.0 18.0 0.00 0.00 0.00 18 1013.2
20260506214550 85 282 2.0 12.0 0.00 0.00 0.00 18 1013.2
20260506214036 85 248 7.0 12.0 0.00 0.00 0.00 18 1013.4
20260506213536 85 186 6.0 19.0 0.00 0.00 0.00 17 1013.5
20260506213047 85 195 7.0 19.0 0.00 0.00 0.00 18 1013.6
20260506212536 84 273 5.0 10.0 0.00 0.00 0.00 18 1013.7
20260506212036 84 44 3.0 11.0 0.00 0.00 0.00 19 1013.7
20260506211547 83 213 6.0 13.0 0.00 0.00 0.00 18 1013.8
20260506211036 83 275 8.0 13.0 0.00 0.00 0.00 19 1013.9
20260506210538 83 292 3.0 9.0 0.00 0.00 0.00 19 1014.0
20260506210048 83 169 2.0 10.0 0.00 0.00 0.00 20 1014.1
20260506205535 83 67 3.0 10.0 0.00 0.00 0.00 20 1014.3
20260506205035 83 9 3.0 8.0 0.00 0.00 0.00 21 1014.4
20260506204544 82 51 3.0 9.0 0.00 0.00 0.00 21 1014.5
20260506204035 82 136 5.0 11.0 0.00 0.00 0.00 18 1014.5
20260506203535 83 207 4.0 11.0 0.00 0.00 0.00 19 1014.5
20260506203126 82 236 3.0 14.0 0.00 0.00 0.00 19 1014.6
20260506202535 82 288 7.0 16.0 0.00 0.00 0.00 19 1014.7
20260506202035 81 43 10.0 16.0 0.00 0.00 0.00 19 1014.7
20260506201546 81 296 3.0 12.0 0.00 0.00 0.00 20 1014.7
20260506201035 81 294 5.0 10.0 0.00 0.00 0.00 19 1014.7
20260506200537 81 297 3.0 13.0 0.00 0.00 0.00 20 1014.7
20260506200051 81 31 5.0 13.0 0.00 0.00 0.00 20 1014.8
20260506195536 81 309 1.0 11.0 0.00 0.00 0.00 20 1014.8
20260506195036 80 313 8.0 13.0 0.00 0.00 0.00 20 1014.9
20260506194545 81 286 3.0 15.0 0.00 0.00 0.00 20 1014.9
20260506194035 81 269 9.0 15.0 0.00 0.00 0.00 20 1015.0
20260506193534 82 286 4.0 13.0 0.00 0.00 0.00 20 1015.0
20260506193043 81 309 6.0 12.0 0.00 0.00 0.00 20 1015.1
20260506192534 81 265 3.0 13.0 0.00 0.00 0.00 20 1015.2
20260506192034 81 227 5.0 13.0 0.00 0.00 0.00 20 1015.2
20260506191545 81 309 3.0 16.0 0.00 0.00 0.00 21 1015.2
20260506191035 80 218 7.0 17.0 0.00 0.00 0.00 20 1015.3
20260506190535 81 267 10.0 17.0 0.00 0.00 0.00 20 1015.3
20260506190049 80 244 2.0 11.0 0.00 0.00 0.00 21 1015.3
20260506185534 80 332 4.0 14.0 0.00 0.00 0.00 23 1015.5
20260506185034 80 229 8.0 14.0 0.00 0.00 0.00 21 1015.6
20260506184552 80 211 6.0 12.0 0.00 0.00 0.00 22 1015.6
20260506184034 79 236 5.0 16.0 0.00 0.00 0.00 22 1015.6
20260506183534 79 225 6.0 16.0 0.00 0.00 0.00 23 1015.6
20260506183047 79 269 7.0 16.0 0.00 0.00 0.00 22 1015.7
20260506182534 79 146 5.0 12.0 0.00 0.00 0.00 22 1015.8
20260506182034 78 291 3.0 17.0 0.00 0.00 0.00 24 1015.8
20260506181545 79 262 8.0 17.0 0.00 0.00 0.00 23 1015.9
20260506181034 79 242 5.0 13.0 0.00 0.00 0.00 24 1016.0
20260506180533 79 277 2.0 12.0 0.00 0.00 0.00 26 1016.1
20260506180046 78 249 5.0 12.0 0.00 0.00 0.00 25 1016.1
20260506175533 78 325 4.0 11.0 0.00 0.00 0.00 25 1016.1
20260506175034 77 309 5.0 11.0 0.00 0.00 0.00 27 1016.1
20260506174546 77 23 3.0 13.0 0.00 0.00 0.00 27 1016.1
20260506174035 77 265 5.0 13.0 0.00 0.00 0.00 26 1016.1
20260506173536 77 0 3.0 11.0 0.00 0.00 0.00 26 1016.2
20260506173056 76 255 5.0 15.0 0.00 0.00 0.00 27 1016.2
20260506172536 76 261 8.0 15.0 0.00 0.00 0.00 27 1016.2
20260506172039 76 291 4.0 13.0 0.00 0.00 0.00 28 1016.1
20260506171550 76 279 7.0 13.0 0.00 0.00 0.00 27 1016.2
20260506171035 75 221 6.0 12.0 0.00 0.00 0.00 28 1016.1
20260506170535 75 249 3.0 11.0 0.00 0.00 0.00 29 1016.2
20260506170051 74 259 5.0 11.0 0.00 0.00 0.00 30 1016.3
20260506165537 74 271 4.0 11.0 0.00 0.00 0.00 30 1016.1
20260506165036 73 267 4.0 11.0 0.00 0.00 0.00 30 1016.1
20260506164548 73 249 6.0 12.0 0.00 0.00 0.00 31 1016.2
20260506164033 73 225 9.0 12.0 0.00 0.00 0.00 31 1016.1
20260506163536 72 249 4.0 11.0 0.00 0.00 0.00 32 1016.1
20260506163057 71 272 7.0 10.0 0.00 0.00 0.00 32 1016.1
20260506162536 71 275 7.0 10.0 0.00 0.00 0.00 33 1016.1
20260506162037 71 289 7.0 10.0 0.00 0.00 0.00 33 1015.9
20260506161544 71 270 5.0 10.0 0.00 0.00 0.00 33 1016.0
20260506161039 70 232 6.0 10.0 0.00 0.00 0.00 34 1015.9
20260506160536 69 284 5.0 10.0 0.00 0.00 0.00 34 1016.0
20260506160043 69 286 5.0 11.0 0.00 0.00 0.00 34 1016.1
20260506155536 69 277 4.0 11.0 0.00 0.00 0.00 35 1016.1
20260506155038 68 281 5.0 10.0 0.00 0.00 0.00 34 1016.1
20260506154548 68 236 6.0 10.0 0.00 0.00 0.00 35 1016.0
20260506154039 68 294 6.0 11.0 0.00 0.00 0.00 36 1016.0
20260506153535 67 265 6.0 11.0 0.00 0.00 0.00 36 1016.1
20260506153050 67 267 8.0 11.0 0.00 0.00 0.00 37 1016.1
20260506152537 66 281 7.0 12.0 0.00 0.00 0.00 37 1016.1
20260506152036 66 281 6.0 12.0 0.00 0.00 0.00 38 1016.2
20260506151553 66 271 7.0 11.0 0.00 0.00 0.00 38 1016.0
20260506151035 65 254 8.0 11.0 0.00 0.00 0.00 38 1016.1
20260506150536 65 287 7.0 12.0 0.00 0.00 0.00 38 1016.1
20260506150045 65 284 8.0 12.0 0.00 0.00 0.00 39 1016.1
20260506145535 65 268 5.0 10.0 0.00 0.00 0.00 40 1016.1
20260506145035 64 248 6.0 10.0 0.00 0.00 0.00 40 1016.0
20260506144545 64 250 6.0 10.0 0.00 0.00 0.00 41 1015.9
20260506144035 63 288 6.0 9.0 0.00 0.00 0.00 41 1015.9
20260506143535 63 268 5.0 9.0 0.00 0.00 0.00 42 1015.9
20260506143050 62 288 5.0 9.0 0.00 0.00 0.00 42 1015.8
20260506142534 62 294 5.0 10.0 0.00 0.00 0.00 43 1015.8
20260506142035 62 280 6.0 10.0 0.00 0.00 0.00 42 1015.7